Location: Cucq
(50.4773°N, 1.6202°E)
Time: 04:57:31
(UTC+00:00)

IRS-1D - Pass Details

Date: 07 August 2020
Orbit: 741 x 816 km, 98.6° (Epoch: 19 September)

Event Time Altitude Azimuth Distance (km) Brightness Sun altitude
Rises 02:21:12 0° 14° (NNE) 3,211 8.1 -16.3°
Reaches altitude 10° 02:23:29 10° 15° (NNE) 2,290 7.1 -16.1°
Maximum altitude 02:28:32 90° 34° (NE) 771 3.5 -15.6°
Enters shadow 02:31:55 22° 197° (SSW) 1,641 4.7 -15.3°
